Regional Weather Roundup
Issued by NWS

Home | Current Version | Previous Version | Graphics & Text | Print | Product List | Glossary On
Versions: 1 2 3 4 5 6 7 8 9 10 11 12 13 14 15 16 17 18 19 20 21 22 23 24 25 26 27 28 29 30 31 32 33 34 35 36 37 38 39 40 41 42 43 44 45 46 47 48 49 50
000
ASUS43 KMKX 161911
RWRWI

WISCONSIN REGIONAL WEATHER ROUNDUP
NATIONAL WEATHER SERVICE MILWAUKEE/SULLIVAN WI
200 PM CDT MON OCT 16 2017

NOTE: "FAIR" INDICATES FEW OR NO CLOUDS BELOW 12,000 FEET WITH NO
SIGNIFICANT WEATHER AND/OR OBSTRUCTIONS TO VISIBILITY.

WIZ001-002-006>008-014>016-023>028-162000-
NORTHWEST WISCONSIN

CITY           SKY/WX    TMP DP  RH WIND       PRES   REMARKS
SUPERIOR ARPT  SUNNY     60  37  42 SW16G22   30.06F
ASHLAND        SUNNY     59  37  44 SW16      30.08F
HAYWARD        SUNNY     57  35  43 SW10G18   30.11F
SIREN          SUNNY     59  34  38 SW12G20   30.11F
CUMBERLAND     SUNNY     55  34  44 W12G17    30.13F
RICE LAKE      SUNNY     58  32  36 SW14G21   30.16F
CHETEK         SUNNY     58  34  41 W10G18    30.15F
LADYSMITH      SUNNY     57  37  46 SW13G20   30.15F
EAU CLAIRE     SUNNY     59  33  37 SW16      30.15F
MENOMONIE      SUNNY     60  35  39 S8        30.17F
NEW RICHMOND   SUNNY     60  33  36 S12       30.14F
OSCEOLA        SUNNY     60  34  37 SW9       30.16F
$$

WIZ003>005-009-010-017-018-162000-
NORTH CENTRAL WISCONSIN

CITY           SKY/WX    TMP DP  RH WIND       PRES   REMARKS
MANITOWISH WTR MOSUNNY   55  36  50 SW13G22   30.10F
ARBOR VITAE    SUNNY     57  39  51 W10G17    30.11F
WOODRUFF       SUNNY     57  39  51 W10G17    30.11F
RHINELANDER    CLOUDY    56  37  49 SW16G25   30.14F
EAGLE RIVER    MOSUNNY   53  33  45 SW16G23   30.11F
LAND O LAKES   MOSUNNY   54  33  46 W12G17    30.12F
PHILLIPS       SUNNY     54  37  52 SW13G21   30.12F
TOMAHAWK       SUNNY     55  35  47 SW5       30.14F
MEDFORD        SUNNY     55  34  45 SW17G23   30.15F
MERRILL        MOSUNNY   56  37  48 SW17G24   30.15F
$$

WIZ029-030-035-036-043>047-162000-
CENTRAL WISCONSIN

CITY           SKY/WX    TMP DP  RH WIND       PRES   REMARKS
WAUSAU         SUNNY     56  35  45 SW15      30.15F
MOSINEE        MOSUNNY   57  37  47 SW16      30.17F
MARSHFIELD     SUNNY     58  36  43 W16G23    30.17F
STEVENS POINT  MOSUNNY   55  35  46 SW10G18   30.18F
WAUPACA        SUNNY     60  35  38 SW12G18   30.19F
WAUTOMA        SUNNY     59  37  44 W13G21    30.20F
WISC RAPIDS    SUNNY     60  36  40 W13       30.19F
CAMP DOUGLAS   MOSUNNY   59  36  41 SW12G21   30.19F
$$

WIZ011>013-019>022-031-037>040-048>050-162000-
NORTHEAST WISCONSIN

CITY           SKY/WX    TMP DP  RH WIND       PRES   REMARKS
ANTIGO         MOSUNNY   53  37  55 W17       30.16F
SHAWANO        SUNNY     58  37  46 W8        30.17F
OCONTO         SUNNY     57  37  47 W12G21    30.17F
STURGEON BAY   SUNNY     55  39  54 SW14      30.18F
GREEN BAY      SUNNY     57  41  55 SW12      30.19F
MANITOWOC      SUNNY     57  35  43 W10G21    30.21F
APPLETON       MOSUNNY   55  32  41 SW12G18   30.19F
CLINTONVILLE   NOT AVBL
OSHKOSH        SUNNY     57  35  43 W8        30.20F
$$

WIZ032>034-041-042-053>061-162000-
SOUTHWEST WISCONSIN

CITY           SKY/WX    TMP DP  RH WIND       PRES   REMARKS
LA CROSSE      SUNNY     64  37  36 SW12      30.19F
SPARTA         SUNNY     58  36  43 SW12      30.20F
VIROQUA        SUNNY     60  39  45 SW13G20   30.22F
BOSCOBEL       SUNNY     63  35  35 SW13G18   30.23F
PRAIRIE DU CHI SUNNY     63  32  32 SW8       30.23F
PLATTEVILLE    SUNNY     61  36  40 W14G20    30.25F
$$

WIZ056-057-062-063-064-067-068-162000-
SOUTH CENTRAL WISCONSIN

CITY           SKY/WX    TMP DP  RH WIND       PRES   REMARKS
REEDSBURG      SUNNY     59  38  46 SW12G20   30.22F
BARABOO/DELLS  SUNNY     58  34  40 W13       30.21F
LONE ROCK      SUNNY     61  38  42 W12       30.22F
MINERAL POINT  SUNNY     63  34  34 SW10      30.24F
MADISON        MOSUNNY   59  35  40 VRB6      30.23F
MIDDLETON      SUNNY     61  35  38 W10G17    30.24F
WATERTOWN      SUNNY     59  37  42 W7        30.23F
MONROE         SUNNY     59  32  36 SW16      30.25F
JANESVILLE     SUNNY     63  34  34 W12       30.25F
$$

WIZ051-052-058>065-066-070>072-162000-
SOUTHEAST WISCONSIN

CITY           SKY/WX    TMP DP  RH WIND       PRES   REMARKS
MILWAUKEE      MOSUNNY   61  37  41 W12       30.24F
WAUKESHA       SUNNY     57  36  44 W8G16     30.25F
MILWAUKEE/TIMM SUNNY     59  32  36 SW12      30.25F
RACINE         MOSUNNY   59  41  51 VRB7      30.25F
BURLINGTON     SUNNY     60  38  43 W6G17     30.24F
KENOSHA        SUNNY     61  39  44 SW10      30.24F
FOND DU LAC    SUNNY     58  34  40 VRB7      30.21F
SHEBOYGAN      SUNNY     58  38  47 W12       30.22F
WEST BEND      SUNNY     57  34  41 SW8       30.23S
JUNEAU         SUNNY     57  35  44 SW14      30.23F
$$

LSZ147-162-162000-
LAKE SUPERIOR

STATION/POSITION TIME  TEMP    WIND        PRES    WAVE
                       AIR SEA DIR/SP/G            HT/PER
                 (UTC) (F)     (DEG/KT/KT) (MB)    (FT/S)
W MID LAKE BUOY  1850   51 53              1018.1F   3/ 5
DEVILS ISLAND    1900   54     230/ 17/ 20 1017.9F
SAXON HARBOR     1840   58     260/ 10/ 15 1018.3F
$$

LMZ867-665-643>646-162000-
LAKE MICHIGAN

STATION/POSITION TIME  TEMP    WIND        PRES    WAVE
                       AIR SEA DIR/SP/G            HT/PER
                 (UTC) (F)     (DEG/KT/KT) (MB)    (FT/S)
S GREEN BAY BUOY 1900   55 58  220/ 14/ 17 1021.4
N MID LAKE BUOY  1850   52 60  230/ 16/ 17 1022.4F   2/ 4
NORTHPORT PIER   1840   55     220/  6/ 13 1021.3F
KEWAUNEE LAKESHO 1842   56     230/  7/ 13 1021.9F
SHEBOYGAN LAKESH 1900   56     210/  8/ 10 1023.2F
PORT WASHINGTON  1840   55     180/  7/ 14 1024.4F
MILWAUKEE LAKESH 1850   53     130/ 12/ 14   N/A
S MID LAKE BUOY  1850   55 62  230/ 10/ 12 1025.0F   2/ 6
KENOSHA   LAKESH 1900   59     240/  8/ 12 1023.7
$$

TC  - TEMPERATURE IN CELSIUS
VSB - VISIBILITY IN STATUTE MILES
WCI - WIND CHILL INDEX
HX  - HEAT INDEX




USA.gov is the U.S. government's official web portal to all federal, state and local government web resources and services.